�v������,���r���O(���x),�����t���O,���r���O(���x),�����t���O,��1(���x),�����t���O,��1(���x),�����t���O,�O�C���x,�����t���O,�O�C���x,�����t���O,�������x,�����t���O,�C�ۑ�(���x),�����t���O,�C�ۑ�(���x),�����t���O
3/1/2003 0:00,16.7,0,31,0,0,2,45,0,6.9,0,40,0,9.6,0,8.7,0,48.8,0
3/1/2003 0:15,16.4,0,31,0,0,2,46,0,6.9,0,39,0,9.8,0,8.4,0,49.8,0
3/1/2003 0:30,16.5,0,32,0,0,2,46,0,6.2,0,40,0,10,0,8.1,0,50.8,0
3/1/2003 0:45,16.3,0,32,0,0,2,46,0,6.4,0,40,0,10.1,0,7.8,0,51.8,0
3/1/2003 1:00,16.4,0,32,0,0,2,46,0,6.1,0,42,0,10.3,0,7.5,0,52.8,0
3/1/2003 1:15,16.2,0,33,0,0,2,47,0,5.8,0,42,0,10.4,0,7.6,0,52.5,0
3/1/2003 1:30,15.8,0,34,0,0,2,47,0,5.8,0,44,0,10.5,0,7.7,0,52.3,0
3/1/2003 1:45,15.5,0,34,0,0,2,47,0,5.6,0,44,0,10.6,0,7.8,0,52,0
3/1/2003 2:00,15.3,0,34,0,0,2,48,0,5.5,0,43,0,10.7,0,7.9,0,51.8,0
3/1/2003 2:15,15.2,0,34,0,0,2,49,0,5,0,42,0,10.9,0,7.4,0,52.8,0
3/1/2003 2:30,14.9,0,33,0,0,2,49,0,4.6,0,42,0,11.1,0,6.8,0,53.8,0
3/1/2003 2:45,14.9,0,33,0,0,2,49,0,4.5,0,42,0,11.2,0,6.3,0,54.8,0
3/1/2003 3:00,14.6,0,33,0,0,2,50,0,4.4,0,40,0,11.3,0,5.8,0,55.8,0
3/1/2003 3:15,14.5,0,33,0,0,2,50,0,4.2,0,40,0,11.4,0,5.4,0,54.8,0
3/1/2003 3:30,14.3,0,33,0,0,2,50,0,4,0,41,0,11.7,0,5.1,0,53.8,0
3/1/2003 3:45,14.3,0,33,0,0,2,51,0,3.7,0,42,0,11.8,0,4.7,0,52.8,0
3/1/2003 4:00,14.1,0,33,0,0,2,51,0,3.6,0,43,0,11.8,0,4.4,0,51.8,0
3/1/2003 4:15,13.9,0,34,0,0,2,51,0,3.7,0,43,0,12,0,4.4,0,52,0
3/1/2003 4:30,13.8,0,34,0,0,2,51,0,4.8,0,41,0,12.2,0,4.3,0,52.3,0
3/1/2003 4:45,13.7,0,34,0,0,2,51,0,3.6,0,43,0,12.3,0,4.3,0,52.5,0
3/1/2003 5:00,13.6,0,34,0,0,2,51,0,3.7,0,43,0,12.4,0,4.3,0,52.8,0
3/1/2003 5:15,13.5,0,34,0,0,2,52,0,4.6,0,42,0,12.5,0,4.3,0,52.8,0
3/1/2003 5:30,13.4,0,35,0,0,2,52,0,4.5,0,41,0,12.7,0,4.3,0,52.8,0
3/1/2003 5:45,13.3,0,36,0,0,2,52,0,4.5,0,41,0,12.8,0,4.4,0,52.8,0
3/1/2003 6:00,13.3,0,36,0,0,2,52,0,4.3,0,41,0,12.9,0,4.4,0,52.8,0
3/1/2003 6:15,13.1,0,36,0,0,2,52,0,4.8,0,40,0,13,0,4.4,0,52.3,0
3/1/2003 6:30,13.1,0,36,0,0,2,52,0,4.5,0,40,0,13.1,0,4.4,0,51.8,0
3/1/2003 6:45,13,0,37,0,0,2,52,0,4.3,0,39,0,13.3,0,4.5,0,51.3,0
3/1/2003 7:00,13,0,37,0,0,2,52,0,4.8,0,38,0,13.4,0,4.5,0,50.8,0
3/1/2003 7:15,13,0,38,0,0,2,49,0,5.3,0,38,0,13.5,0,4.5,0,50.5,0
3/1/2003 7:30,12.9,0,39,0,0,2,49,0,4.8,0,37,0,13.6,0,4.6,0,50.3,0
3/1/2003 7:45,13.1,0,39,0,0,2,49,0,4.5,0,38,0,13.7,0,4.6,0,50,0
3/1/2003 8:00,13.1,0,39,0,0,2,49,0,4.9,0,38,0,13.9,0,4.7,0,49.8,0
3/1/2003 8:15,14.2,0,37,0,0,2,49,0,5.4,0,37,0,14,0,4.8,0,49.3,0
3/1/2003 8:30,14.9,0,36,0,0,2,49,0,4.8,0,37,0,14,0,4.9,0,48.8,0
3/1/2003 8:45,15.7,0,35,0,0,2,48,0,5.1,0,37,0,14.1,0,5,0,48.3,0
3/1/2003 9:00,16.2,0,34,0,0,2,48,0,5.4,0,36,0,14.3,0,5.1,0,47.8,0
3/1/2003 9:15,16.7,0,33,0,0,2,48,0,5,0,37,0,14.3,0,5.2,0,48,0
3/1/2003 9:30,17.2,0,32,0,0,2,48,0,5.1,0,36,0,14.4,0,5.4,0,48.3,0
3/1/2003 9:45,17.4,0,32,0,0,2,48,0,5,0,36,0,14.5,0,5.5,0,48.5,0
3/1/2003 10:00,17.2,0,31,0,0,2,48,0,5.2,0,36,0,14.6,0,5.7,0,48.8,0
3/1/2003 10:15,17,0,31,0,0,2,48,0,5.9,0,34,0,14.7,0,5.7,0,48.8,0
3/1/2003 10:30,16.4,0,32,0,0,2,47,0,5.9,0,34,0,14.8,0,5.7,0,48.8,0
3/1/2003 10:45,16.3,0,32,0,0,2,48,0,6.2,0,34,0,14.9,0,5.7,0,48.8,0
3/1/2003 11:00,16.2,0,31,0,0,2,47,0,5.3,0,41,0,15,0,5.7,0,48.8,0
3/1/2003 11:15,16,0,32,0,0,2,47,0,5.9,0,45,0,15.1,0,5.4,0,53.1,0
3/1/2003 11:30,15.8,0,32,0,0,2,47,0,4.6,0,54,0,15.2,0,5,0,57.3,0
3/1/2003 11:45,15.6,0,32,0,0,2,47,0,4.9,0,61,0,15.2,0,4.7,0,61.6,0
3/1/2003 12:00,15.5,0,33,0,0,2,48,0,4.3,0,68,0,15.3,0,4.4,0,65.8,0
3/1/2003 12:15,15.1,0,33,0,0,2,48,0,4,0,73,0,11.1,0,4.1,0,70.8,0
3/1/2003 12:30,14.9,0,34,0,0,2,48,0,4.5,0,69,0,11.1,0,3.7,0,75.8,0
3/1/2003 12:45,14.7,0,34,0,0,2,48,0,3.8,0,76,0,11.4,0,3.4,0,80.8,0
3/1/2003 13:00,14.4,0,35,0,0,2,48,0,4.3,0,79,0,11.4,0,3.1,0,85.8,0
3/1/2003 13:15,14.7,0,36,0,0,2,49,0,3.9,0,81,0,11.6,0,3.1,0,86.6,0
3/1/2003 13:30,15.4,0,37,0,0,2,50,0,3.7,0,81,0,11.8,0,3.1,0,87.3,0
3/1/2003 13:45,15.8,0,37,0,0,2,48,0,4.2,0,84,0,10.1,0,3.1,0,88.1,0
3/1/2003 14:00,15.8,0,37,0,0,2,48,0,4.5,0,82,0,10.2,0,3.1,0,88.8,0
3/1/2003 14:15,17.3,0,36,0,0,2,48,0,4.8,0,82,0,9.5,0,3.1,0,89.3,0
3/1/2003 14:30,18.4,0,35,0,0,2,47,0,4.3,0,83,0,9.2,0,3.1,0,89.8,0
3/1/2003 14:45,18.2,0,34,0,0,2,46,0,4.8,0,85,0,9.3,0,3.1,0,90.3,0
3/1/2003 15:00,17.8,0,34,0,0,2,46,0,4.8,0,82,0,9.2,0,3.1,0,90.8,0
3/1/2003 15:15,17.4,0,34,0,0,2,47,0,4.7,0,82,0,9,0,3.1,0,90.8,0
3/1/2003 15:30,17.2,0,35,0,0,2,46,0,4.7,0,85,0,9.2,0,3.2,0,90.8,0
3/1/2003 15:45,17.1,0,35,0,0,2,47,0,5.1,0,85,0,9.3,0,3.2,0,90.8,0
3/1/2003 16:00,17.6,0,36,0,0,2,46,0,4.7,0,84,0,9.6,0,3.3,0,90.8,0
3/1/2003 16:15,18.3,0,35,0,0,2,47,0,4.7,0,87,0,9.7,0,3.4,0,91.1,0
3/1/2003 16:30,17.4,0,36,0,0,2,47,0,4.8,0,89,0,9.9,0,3.4,0,91.3,0
3/1/2003 16:45,17,0,36,0,0,2,48,0,4.7,0,90,0,10,0,3.5,0,91.6,0
3/1/2003 17:00,16.7,0,37,0,0,2,47,0,4.5,0,91,0,9.4,0,3.6,0,91.8,0
3/1/2003 17:15,16.4,0,37,0,0,2,47,0,4.6,0,93,0,9.6,0,3.5,0,91.8,0
3/1/2003 17:30,16.3,0,37,0,0,2,47,0,4.6,0,93,0,9.2,0,3.4,0,91.8,0
3/1/2003 17:45,16,0,37,0,0,2,47,0,4.8,0,91,0,9.2,0,3.4,0,91.8,0
3/1/2003 18:00,15.8,0,38,0,0,2,47,0,4.8,0,91,0,9.5,0,3.3,0,91.8,0
3/1/2003 18:15,15.6,0,38,0,0,2,47,0,4.8,0,92,0,9.7,0,3.4,0,91.8,0
3/1/2003 18:30,15.1,0,38,0,0,2,47,0,4.7,0,93,0,9.8,0,3.5,0,91.8,0
3/1/2003 18:45,14.8,0,39,0,0,2,48,0,5.1,0,95,0,10.1,0,3.6,0,91.8,0
3/1/2003 19:00,14.8,0,39,0,0,2,48,0,4.9,0,93,0,10.1,0,3.7,0,91.8,0
3/1/2003 19:15,14.4,0,40,0,0,2,48,0,5.1,0,95,0,10.3,0,3.8,0,92.1,0
3/1/2003 19:30,14.6,0,41,0,0,2,48,0,5.1,0,95,0,10.5,0,3.8,0,92.3,0
3/1/2003 19:45,14.8,0,42,0,0,2,48,0,5.3,0,94,0,10.7,0,3.9,0,92.6,0
3/1/2003 20:00,14.6,0,42,0,0,2,48,0,5.6,0,95,0,10.9,0,4,0,92.8,0
3/1/2003 20:15,14.4,0,42,0,0,2,48,0,5.1,0,96,0,9.5,0,4,0,92.8,0
3/1/2003 20:30,15.1,0,42,0,0,2,48,0,5.5,0,98,0,9.6,0,4,0,92.8,0
3/1/2003 20:45,17.2,0,39,0,0,2,48,0,5.3,0,97,0,8.8,0,4.1,0,92.8,0
3/1/2003 21:00,18.3,0,39,0,0,2,48,0,5.3,0,96,0,9,0,4.1,0,92.8,0
3/1/2003 21:15,17.2,0,39,0,0,2,48,0,4.9,0,97,0,9.3,0,4.1,0,92.8,0
3/1/2003 21:30,16.9,0,39,0,0,2,48,0,5.1,0,98,0,9.3,0,4.1,0,92.8,0
3/1/2003 21:45,16.6,0,39,0,0,2,49,0,5.1,0,98,0,9.5,0,4.1,0,92.8,0
3/1/2003 22:00,16.4,0,39,0,0,2,48,0,4.9,0,97,0,9.7,0,4.1,0,92.8,0
3/1/2003 22:15,16.2,0,39,0,0,2,48,0,5.1,0,98,0,9.8,0,4.2,0,93.1,0
3/1/2003 22:30,16.1,0,39,0,0,2,48,0,5.2,0,99,0,10,0,4.3,0,93.3,0
3/1/2003 22:45,15.9,0,39,0,0,2,48,0,5.4,0,99,0,10.1,0,4.4,0,93.6,0
3/1/2003 23:00,15.7,0,40,0,0,2,48,0,5.6,0,99,0,10.3,0,4.5,0,93.8,0
3/1/2003 23:15,15.5,0,40,0,0,2,34,0,5.8,0,99,0,10.4,0,4.6,0,93.8,0
3/1/2003 23:30,15.2,0,40,0,0,2,34,0,6.1,0,99,0,10.5,0,4.7,0,93.8,0
3/1/2003 23:45,15.1,0,40,0,0,2,36,0,6.2,0,99,0,10.7,0,4.9,0,93.8,0
3/2/2003 0:00,15,0,41,0,0,2,40,0,6.5,0,99,0,10.8,0,5,0,93.8,0
3/2/2003 0:15,14.9,0,41,0,0,2,42,0,6.7,0,99,0,10.9,0,5.3,0,93.6,0
3/2/2003 0:30,14.8,0,41,0,0,2,45,0,6.8,0,99,0,11.1,0,5.5,0,93.3,0
3/2/2003 0:45,14.7,0,42,0,0,2,46,0,6.9,0,99,0,11.2,0,5.8,0,93.1,0
3/2/2003 1:00,14.4,0,43,0,0,2,47,0,6.9,0,99,0,11.3,0,6.1,0,92.8,0
3/2/2003 1:15,14.4,0,43,0,0,2,48,0,7.2,0,99,0,11.4,0,6.6,0,91.8,0
3/2/2003 1:30,14.4,0,44,0,0,2,50,0,7.9,0,99,0,11.7,0,7.2,0,90.8,0
3/2/2003 1:45,14.5,0,45,0,0,2,50,0,8.1,0,99,0,11.8,0,7.7,0,89.8,0
3/2/2003 2:00,14.5,0,45,0,0,2,51,0,8.3,0,99,0,11.8,0,8.3,0,88.8,0
3/2/2003 2:15,14.5,0,46,0,0,2,52,0,8.4,0,96,0,12,0,8.7,0,85.3,0
3/2/2003 2:30,14.6,0,46,0,0,2,53,0,9.1,0,85,0,12,0,9.1,0,81.8,0
3/2/2003 2:45,14.5,0,46,0,0,2,54,0,9.7,0,73,0,8.9,0,9.6,0,78.3,0
3/2/2003 3:00,14.7,0,46,0,0,2,54,0,10.4,0,60,0,8.8,0,10,0,74.8,0
3/2/2003 3:15,14.7,0,46,0,0,2,54,0,10.3,0,55,0,9,0,10.3,0,70.3,0
3/2/2003 3:30,14.8,0,46,0,0,2,55,0,10.5,0,50,0,9.1,0,10.6,0,65.8,0
3/2/2003 3:45,14.9,0,45,0,0,2,55,0,10.4,0,48,0,9.3,0,11,0,61.3,0
3/2/2003 4:00,14.9,0,44,0,0,2,56,0,10.7,0,44,0,9.5,0,11.3,0,56.8,0
3/2/2003 4:15,15.1,0,44,0,0,2,56,0,10.9,0,40,0,9.6,0,11.4,0,53.5,0
3/2/2003 4:30,15.2,0,43,0,0,2,57,0,10.9,0,37,0,9.8,0,11.5,0,50.3,0
3/2/2003 4:45,15,0,42,0,0,2,57,0,10.6,0,38,0,10,0,11.6,0,47,0
3/2/2003 5:00,14.8,0,41,0,0,2,58,0,10.5,0,37,0,10.3,0,11.7,0,43.8,0
3/2/2003 5:15,14.8,0,40,0,0,2,58,0,10.4,0,37,0,10.4,0,11.6,0,42.8,0
3/2/2003 5:30,14.6,0,39,0,0,2,58,0,10.4,0,36,0,10.5,0,11.5,0,41.8,0
3/2/2003 5:45,14.6,0,39,0,0,2,59,0,10.5,0,35,0,10.8,0,11.4,0,40.8,0
3/2/2003 6:00,14.4,0,38,0,0,2,59,0,10.2,0,35,0,10.9,0,11.3,0,39.8,0
3/2/2003 6:15,14.4,0,37,0,0,2,59,0,10,0,36,0,11.2,0,11.2,0,39.5,0
3/2/2003 6:30,14.2,0,37,0,0,2,59,0,10.2,0,35,0,11.3,0,11.2,0,39.3,0
3/2/2003 6:45,14.2,0,37,0,0,2,59,0,10.2,0,35,0,11.5,0,11.1,0,39,0
3/2/2003 7:00,14.1,0,37,0,0,2,59,0,10.2,0,34,0,11.6,0,11.1,0,38.8,0
3/2/2003 7:15,14.1,0,36,0,0,2,59,0,10.2,0,34,0,11.9,0,11.1,0,39,0
3/2/2003 7:30,13.9,0,36,0,0,2,60,0,10,0,35,0,12,0,11.1,0,39.3,0
3/2/2003 7:45,14,0,36,0,0,2,60,0,10.5,0,33,0,10.3,0,11.2,0,39.5,0
3/2/2003 8:00,13.9,0,36,0,0,2,60,0,10.7,0,33,0,10.5,0,11.2,0,39.8,0
3/2/2003 8:15,15.1,0,37,0,0,2,59,0,10.5,0,34,0,10.5,0,11.3,0,39,0
3/2/2003 8:30,16,0,37,0,0,2,58,0,10.6,0,34,0,10.7,0,11.5,0,38.3,0
3/2/2003 8:45,16.6,0,37,0,0,2,57,0,10.8,0,33,0,10.9,0,11.6,0,37.5,0
3/2/2003 9:00,16.9,0,37,0,0,2,55,0,11.1,0,31,0,11.1,0,11.8,0,36.8,0
3/2/2003 9:15,17.2,0,36,0,0,2,54,0,11.1,0,28,0,11.3,0,12.1,0,34.8,0
3/2/2003 9:30,17.8,0,36,0,0,2,51,0,11.3,0,29,0,11.5,0,12.5,0,32.8,0
3/2/2003 9:45,18.4,0,36,0,0,2,39,0,11.1,0,28,0,11.6,0,12.8,0,30.8,0
3/2/2003 10:00,18.4,0,35,0,0,2,38,0,12.1,0,25,0,11.9,0,13.2,0,28.8,0
3/2/2003 10:15,18.3,0,36,0,0,2,39,0,12.5,0,24,0,12,0,13.5,0,26.5,0
3/2/2003 10:30,18.3,0,35,0,0,2,40,0,12.9,0,24,0,12.2,0,13.8,0,24.3,0
3/2/2003 10:45,18.4,0,34,0,0,2,38,0,13,0,24,0,12.3,0,14.2,0,22,0
3/2/2003 11:00,18.6,0,36,0,0,2,36,0,13.5,0,23,0,12.5,0,14.5,0,19.8,0
3/2/2003 11:15,18.6,0,36,0,0,2,36,0,13.7,0,22,0,12.6,0,14.6,0,19.3,0
3/2/2003 11:30,18.7,0,35,0,0,2,35,0,14,0,22,0,12.8,0,14.7,0,18.8,0
3/2/2003 11:45,18.6,0,35,0,0,2,35,0,14.1,0,23,0,10.3,0,14.8,0,18.3,0
3/2/2003 12:00,18.5,0,34,0,0,2,34,0,14.4,0,22,0,10.3,0,14.9,0,17.8,0
3/2/2003 12:15,18.5,0,34,0,0,2,35,0,14.5,0,22,0,10.5,0,15,0,17.8,0
3/2/2003 12:30,18.4,0,34,0,0,2,35,0,14.7,0,22,0,10.8,0,15.1,0,17.8,0
3/2/2003 12:45,18.3,0,33,0,0,2,34,0,15.2,0,22,0,10.9,0,15.2,0,17.8,0
3/2/2003 13:00,18.4,0,34,0,0,2,34,0,14.8,0,22,0,11.1,0,15.3,0,17.8,0
3/2/2003 13:15,18.4,0,35,0,0,2,34,0,15.1,0,22,0,11.3,0,15.3,0,18.5,0
3/2/2003 13:30,18.3,0,34,0,0,2,34,0,14.9,0,22,0,11.4,0,15.2,0,19.3,0
3/2/2003 13:45,18.2,0,34,0,0,2,33,0,15,0,23,0,11.7,0,15.2,0,20,0
3/2/2003 14:00,18.2,0,35,0,0,2,33,0,14.8,0,22,0,11.9,0,15.2,0,20.8,0
3/2/2003 14:15,18.2,0,35,0,0,2,33,0,14.7,0,23,0,12,0,15,0,20.8,0
3/2/2003 14:30,18.4,0,35,0,0,2,34,0,14.7,0,22,0,10.1,0,14.9,0,20.8,0
3/2/2003 14:45,18.5,0,35,0,0,2,35,0,14.6,0,22,0,10.2,0,14.7,0,20.8,0
3/2/2003 15:00,18.8,0,34,0,0,2,36,0,14.3,0,23,0,10.4,0,14.6,0,20.8,0
3/2/2003 15:15,18.8,0,35,0,0,2,36,0,13.7,0,24,0,10.7,0,14.3,0,22.5,0
3/2/2003 15:30,19,0,35,0,0,2,36,0,13.4,0,24,0,10.9,0,14,0,24.3,0
3/2/2003 15:45,19.1,0,34,0,0,2,36,0,13.4,0,24,0,9.8,0,13.8,0,26,0
3/2/2003 16:00,19.1,0,34,0,0,2,37,0,13.1,0,24,0,10.1,0,13.5,0,27.8,0
3/2/2003 16:15,18.9,0,33,0,0,2,37,0,12.8,0,24,0,10.3,0,13.1,0,28.3,0
3/2/2003 16:30,18.7,0,34,0,0,2,37,0,13.2,0,24,0,10.5,0,12.8,0,28.8,0
3/2/2003 16:45,18.5,0,35,0,0,2,38,0,12.4,0,24,0,10.7,0,12.4,0,29.3,0
3/2/2003 17:00,18.5,0,36,0,0,2,38,0,12.2,0,25,0,10.9,0,12.1,0,29.8,0
3/2/2003 17:15,18.2,0,36,0,0,2,39,0,11.5,0,27,0,9.3,0,11.7,0,30.8,0
3/2/2003 17:30,17.9,0,35,0,0,2,40,0,10.8,0,28,0,9.5,0,11.2,0,31.8,0
3/2/2003 17:45,17.7,0,34,0,0,2,40,0,10.7,0,28,0,9.7,0,10.8,0,32.8,0
3/2/2003 18:00,17.5,0,34,0,0,2,40,0,10.7,0,29,0,9.8,0,10.4,0,33.8,0
3/2/2003 18:15,17.2,0,35,0,0,2,40,0,11.1,0,28,0,10,0,10.2,0,34.3,0
3/2/2003 18:30,17.1,0,37,0,0,2,40,0,10.4,0,28,0,9.2,0,10,0,34.8,0
3/2/2003 18:45,17,0,39,0,0,2,41,0,10.5,0,28,0,9.4,0,9.9,0,35.3,0
3/2/2003 19:00,17.2,0,41,0,0,2,42,0,10.4,0,28,0,9.6,0,9.7,0,35.8,0
3/2/2003 19:15,17.2,0,41,0,0,2,42,0,10.2,0,28,0,9.8,0,9.6,0,35.8,0
3/2/2003 19:30,17.2,0,39,0,0,2,43,0,10.4,0,30,0,10,0,9.5,0,35.8,0
3/2/2003 19:45,17.9,0,38,0,0,2,43,0,10.4,0,30,0,10.2,0,9.4,0,35.8,0
3/2/2003 20:00,19.6,0,36,0,0,2,44,0,10.1,0,31,0,10.5,0,9.3,0,35.8,0
3/2/2003 20:15,20.6,0,35,0,0,2,44,0,10,0,31,0,10.7,0,9.2,0,36,0
3/2/2003 20:30,21.2,0,34,0,0,2,46,0,10,0,31,0,10.9,0,9.1,0,36.3,0
3/2/2003 20:45,20.5,0,35,0,0,2,46,0,9.7,0,31,0,11.1,0,9,0,36.5,0
3/2/2003 21:00,19.8,0,34,0,0,2,46,0,9.4,0,30,0,11.2,0,8.9,0,36.8,0
3/2/2003 21:15,19.4,0,34,0,0,2,45,0,8.9,0,31,0,11.4,0,8.7,0,37.5,0
3/2/2003 21:30,19.2,0,34,0,0,2,47,0,9.4,0,32,0,11.6,0,8.5,0,38.3,0
3/2/2003 21:45,19.1,0,33,0,0,2,47,0,8.8,0,35,0,11.8,0,8.3,0,39,0
3/2/2003 22:00,19,0,33,0,0,2,49,0,8.6,0,36,0,12,0,8.1,0,39.8,0
3/2/2003 22:15,18.4,0,34,0,0,2,51,0,8.6,0,37,0,12,0,8.2,0,39.3,0
3/2/2003 22:30,18.1,0,34,0,0,2,51,0,8.1,0,40,0,12.2,0,8.3,0,38.8,0
3/2/2003 22:45,17.9,0,34,0,0,2,51,0,8,0,40,0,12.3,0,8.4,0,38.3,0
3/2/2003 23:00,17.7,0,34,0,0,2,51,0,7.8,0,41,0,12.5,0,8.5,0,37.8,0
3/2/2003 23:15,17.5,0,34,0,0,2,51,0,8,0,40,0,12.6,0,8.5,0,37.8,0
3/2/2003 23:30,17.4,0,34,0,0,2,52,0,7.5,0,39,0,12.7,0,8.4,0,37.8,0
3/2/2003 23:45,17.3,0,34,0,0,2,52,0,7.6,0,42,0,12.8,0,8.4,0,37.8,0
3/3/2003 0:00,17,0,34,0,0,2,53,0,7.4,0,41,0,13,0,8.4,0,37.8,0
3/3/2003 0:15,16.8,0,35,0,0,2,54,0,7.7,0,43,0,13.1,0,8.4,0,38,0
3/3/2003 0:30,16.7,0,34,0,0,2,54,0,8,0,41,0,13.2,0,8.3,0,38.3,0
3/3/2003 0:45,16.6,0,34,0,0,2,55,0,7.6,0,41,0,13.3,0,8.3,0,38.5,0
3/3/2003 1:00,16.4,0,35,0,0,2,55,0,7.7,0,44,0,13.5,0,8.3,0,38.8,0
3/3/2003 1:15,16.3,0,35,0,0,2,56,0,6.7,0,45,0,13.5,0,8.1,0,40.8,0
3/3/2003 1:30,16.1,0,35,0,0,2,57,0,6.5,0,48,0,13.7,0,8,0,42.8,0
3/3/2003 1:45,15.9,0,35,0,0,2,57,0,6.6,0,51,0,13.8,0,7.8,0,44.8,0
3/3/2003 2:00,15.8,0,35,0,0,2,58,0,6.6,0,49,0,13.8,0,7.7,0,46.8,0
3/3/2003 2:15,15.6,0,35,0,0,2,58,0,6.2,0,51,0,13.9,0,7.5,0,49.3,0
3/3/2003 2:30,15.5,0,36,0,0,2,58,0,6.4,0,53,0,14,0,7.4,0,51.8,0
3/3/2003 2:45,15.4,0,35,0,0,2,57,0,6.4,0,53,0,14.1,0,7.2,0,54.3,0
3/3/2003 3:00,15.3,0,35,0,0,2,58,0,6.2,0,51,0,14.2,0,7.1,0,56.8,0
3/3/2003 3:15,15.1,0,35,0,0,2,57,0,6.8,0,43,0,14.4,0,7,0,56,0
3/3/2003 3:30,15,0,35,0,0,2,57,0,7.2,0,43,0,14.4,0,6.8,0,55.3,0
3/3/2003 3:45,14.8,0,35,0,0,2,57,0,6.2,0,45,0,14.5,0,6.7,0,54.5,0
3/3/2003 4:00,14.7,0,35,0,0,2,57,0,6.8,0,46,0,14.6,0,6.6,0,53.8,0
3/3/2003 4:15,14.6,0,35,0,0,2,57,0,6,0,48,0,14.8,0,6.3,0,53.8,0
3/3/2003 4:30,14.5,0,35,0,0,2,57,0,6.4,0,44,0,14.8,0,6.1,0,53.8,0
3/3/2003 4:45,14.4,0,35,0,0,2,58,0,5.8,0,45,0,11.2,0,5.8,0,53.8,0
3/3/2003 5:00,14.4,0,35,0,0,2,57,0,5.8,0,45,0,11.2,0,5.6,0,53.8,0
3/3/2003 5:15,14.2,0,36,0,0,2,57,0,5.9,0,44,0,11.4,0,5.4,0,54,0
3/3/2003 5:30,14.1,0,36,0,0,2,58,0,5.5,0,44,0,11.5,0,5.3,0,54.3,0
3/3/2003 5:45,13.9,0,36,0,0,2,57,0,5.6,0,44,0,10.1,0,5.1,0,54.5,0
3/3/2003 6:00,13.9,0,37,0,0,2,57,0,5.3,0,46,0,10.1,0,5,0,54.8,0
3/3/2003 6:15,15,0,36,0,0,2,58,0,5.5,0,47,0,9.2,0,5.1,0,54.3,0
3/3/2003 6:30,16.2,0,34,0,0,2,57,0,6.3,0,47,0,9.3,0,5.2,0,53.8,0
3/3/2003 6:45,17.3,0,34,0,0,2,56,0,5.6,0,45,0,9.5,0,5.4,0,53.3,0
3/3/2003 7:00,16.2,0,34,0,0,2,54,0,6.2,0,46,0,9.2,0,5.5,0,52.8,0
3/3/2003 7:15,16,0,34,0,0,2,54,0,6.8,0,44,0,9.1,0,5.8,0,52.5,0
3/3/2003 7:30,16,0,34,0,0,2,54,0,5.9,0,47,0,9.1,0,6.1,0,52.3,0
3/3/2003 7:45,15.9,0,34,0,0,2,53,0,6.6,0,44,0,9.1,0,6.4,0,52,0
3/3/2003 8:00,15.8,0,34,0,0,2,52,0,6.6,0,45,0,9.3,0,6.7,0,51.8,0
3/3/2003 8:15,15.9,0,35,0,0,2,52,0,6.9,0,44,0,9.5,0,7.2,0,52,0
3/3/2003 8:30,16,0,34,0,0,2,50,0,7.4,0,42,0,9.2,0,7.6,0,52.3,0
3/3/2003 8:45,16.3,0,34,0,0,2,49,0,7.3,0,42,0,9,0,8.1,0,52.5,0
3/3/2003 9:00,16.2,0,36,0,0,2,49,0,7.8,0,41,0,9.1,0,8.6,0,52.8,0
3/3/2003 9:15,16.6,0,35,0,0,2,49,0,7.7,0,41,0,9.4,0,8.9,0,53,0
3/3/2003 9:30,16.7,0,35,0,0,2,48,0,8.1,0,41,0,9.5,0,9.3,0,53.3,0
3/3/2003 9:45,16.7,0,35,0,0,2,48,0,8.8,0,40,0,9.3,0,9.6,0,53.5,0
3/3/2003 10:00,16.8,0,36,0,0,2,48,0,8.6,0,41,0,9.4,0,10,0,53.8,0
3/3/2003 10:15,16.9,0,36,0,0,2,47,0,9.4,0,38,0,9.3,0,11.2,0,53.8,0
3/3/2003 10:30,17.1,0,38,0,0,2,47,0,10.3,0,37,0,9.3,0,12.3,0,53.8,0
3/3/2003 10:45,17.2,0,38,0,0,2,46,0,10.5,0,37,0,9.6,0,13.5,0,53.8,0
3/3/2003 11:00,17.2,0,38,0,0,2,45,0,11.4,0,36,0,9.8,0,14.7,0,53.8,0
3/3/2003 11:15,17.1,0,38,0,0,2,45,0,12,0,37,0,10,0,14.7,0,55.8,0
3/3/2003 11:30,17.1,0,39,0,0,2,45,0,14.5,0,45,0,9.5,0,14.6,0,57.8,0
3/3/2003 11:45,17.3,0,40,0,0,2,45,0,15.3,0,46,0,9.1,0,14.6,0,59.8,0
3/3/2003 12:00,17.3,0,41,0,0,2,45,0,15.3,0,47,0,9.2,0,14.6,0,61.8,0
3/3/2003 12:15,17.4,0,42,0,0,2,45,0,16,0,46,0,9.2,0,14.7,0,64.3,0
3/3/2003 12:30,17.5,0,43,0,0,2,45,0,15.3,0,50,0,9.5,0,14.8,0,66.8,0
3/3/2003 12:45,17.4,0,44,0,0,2,46,0,15.5,0,50,0,9.6,0,14.9,0,69.3,0
3/3/2003 13:00,17.5,0,44,0,0,2,46,0,16,0,50,0,9.8,0,15,0,71.8,0
3/3/2003 13:15,17.5,0,43,0,0,2,46,0,15.6,0,51,0,10,0,14.9,0,73.6,0
3/3/2003 13:30,17.6,0,45,0,0,2,46,0,16.4,0,48,0,10.3,0,14.8,0,75.3,0
3/3/2003 13:45,17.8,0,47,0,0,2,46,0,16,0,52,0,10.5,0,14.7,0,77.1,0
3/3/2003 14:00,17.8,0,47,0,0,2,46,0,15.3,0,59,0,10.7,0,14.6,0,78.8,0
3/3/2003 14:15,17.8,0,46,0,0,2,47,0,15,0,68,0,9.9,0,14.4,0,80.6,0
3/3/2003 14:30,17.7,0,46,0,0,2,48,0,14.6,0,72,0,10,0,14.2,0,82.3,0
3/3/2003 14:45,17.6,0,46,0,0,2,48,0,14.5,0,76,0,10.3,0,14.1,0,84.1,0
3/3/2003 15:00,17.5,0,47,0,0,2,48,0,14.3,0,79,0,9.8,0,13.9,0,85.8,0
3/3/2003 15:15,17.5,0,49,0,0,2,49,0,14.2,0,81,0,9.9,0,13.9,0,86.3,0
3/3/2003 15:30,17.5,0,49,0,0,2,49,0,14.2,0,84,0,10.1,0,14,0,86.8,0
3/3/2003 15:45,17.5,0,50,0,0,2,49,0,14.2,0,85,0,10.3,0,14,0,87.3,0
3/3/2003 16:00,17.3,0,49,0,0,2,50,0,14.2,0,87,0,10.5,0,14.1,0,87.8,0
3/3/2003 16:15,17.3,0,49,0,0,2,50,0,14,0,87,0,10.7,0,14.3,0,87.8,0
3/3/2003 16:30,17.1,0,49,0,0,2,50,0,13.9,0,89,0,10.9,0,14.5,0,87.8,0
3/3/2003 16:45,17,0,50,0,0,2,49,0,13.9,0,91,0,11.1,0,14.8,0,87.8,0
3/3/2003 17:00,16.9,0,51,0,0,2,49,0,12.3,0,96,0,11.4,0,15,0,87.8,0
3/3/2003 17:15,16.9,0,50,0,0,2,49,0,9.9,0,88,0,11.6,0,13.3,0,87.8,0
3/3/2003 17:30,16.6,0,50,0,0,2,49,0,9.7,0,85,0,11.7,0,11.6,0,87.8,0
3/3/2003 17:45,16.5,0,50,0,0,2,49,0,8.8,0,81,0,11.9,0,9.9,0,87.8,0
3/3/2003 18:00,16.4,0,50,0,0,2,49,0,8.9,0,80,0,12.1,0,8.2,0,87.8,0
3/3/2003 18:15,16.2,0,49,0,0,2,49,0,9.3,0,78,0,12.2,0,8.1,0,87.3,0
3/3/2003 18:30,16.1,0,50,0,0,2,49,0,8.9,0,79,0,12.5,0,7.9,0,86.8,0
3/3/2003 18:45,16.2,0,50,0,0,2,49,0,9.1,0,78,0,12.6,0,7.8,0,86.3,0
3/3/2003 19:00,16.3,0,50,0,0,2,49,0,9.1,0,76,0,12.7,0,7.7,0,85.8,0
3/3/2003 19:15,16.3,0,50,0,0,2,49,0,9.6,0,77,0,13,0,8,0,82.8,0
3/3/2003 19:30,16.3,0,50,0,0,2,49,0,10,0,75,0,10.9,0,8.3,0,79.8,0
3/3/2003 19:45,16.4,0,51,0,0,2,48,0,10,0,74,0,11,0,8.7,0,76.8,0
3/3/2003 20:00,16.4,0,51,0,0,2,49,0,9.9,0,73,0,11.1,0,9,0,73.8,0
3/3/2003 20:15,16.4,0,50,0,0,2,49,0,9.9,0,68,0,11.4,0,9.3,0,70.3,0
3/3/2003 20:30,17.3,0,47,0,0,2,48,0,9.9,0,62,0,11.6,0,9.5,0,66.8,0
3/3/2003 20:45,17.2,0,46,0,0,2,48,0,9.8,0,54,0,11.8,0,9.8,0,63.3,0
3/3/2003 21:00,17.2,0,45,0,0,2,48,0,9.7,0,49,0,11.9,0,10.1,0,59.8,0
3/3/2003 21:15,17.1,0,44,0,0,2,48,0,9.6,0,46,0,12,0,9.9,0,57.5,0
3/3/2003 21:30,17.1,0,43,0,0,2,48,0,9.4,0,44,0,12.2,0,9.7,0,55.3,0
3/3/2003 21:45,16.8,0,42,0,0,2,48,0,9.2,0,43,0,12.3,0,9.5,0,53,0
3/3/2003 22:00,16.7,0,41,0,0,2,49,0,9.1,0,42,0,12.5,0,9.3,0,50.8,0
3/3/2003 22:15,16.6,0,40,0,0,2,49,0,9,0,40,0,12.7,0,9.1,0,50.5,0
3/3/2003 22:30,16.4,0,39,0,0,2,50,0,9.1,0,38,0,12.8,0,9,0,50.3,0
3/3/2003 22:45,16.3,0,39,0,0,2,49,0,9,0,39,0,12.8,0,8.8,0,50,0
3/3/2003 23:00,16.2,0,38,0,0,2,51,0,8.9,0,38,0,13,0,8.7,0,49.8,0
3/3/2003 23:15,16,0,37,0,0,2,52,0,8.5,0,37,0,13.1,0,8.5,0,49,0
3/3/2003 23:30,15.9,0,39,0,0,2,52,0,8.4,0,37,0,13.3,0,8.4,0,48.3,0
3/3/2003 23:45,15.8,0,39,0,0,2,53,0,8.5,0,37,0,13.3,0,8.2,0,47.5,0
3/4/2003 0:00,15.8,0,39,0,0,2,54,0,8.4,0,36,0,13.5,0,8.1,0,46.8,0
3/4/2003 0:15,15.6,0,40,0,0,2,54,0,8.4,0,35,0,13.5,0,8.1,0,45.3,0
3/4/2003 0:30,15.6,0,40,0,0,2,55,0,8.1,0,34,0,13.7,0,8,0,43.8,0
3/4/2003 0:45,15.5,0,40,0,0,2,57,0,8,0,33,0,13.8,0,8,0,42.3,0
3/4/2003 1:00,15.4,0,40,0,0,2,58,0,7.7,0,33,0,13.8,0,8,0,40.8,0
3/4/2003 1:15,15.4,0,40,0,0,2,59,0,7.2,0,35,0,14,0,7.6,0,41.8,0
3/4/2003 1:30,15.2,0,40,0,0,2,59,0,6.9,0,36,0,14,0,7.3,0,42.8,0
3/4/2003 1:45,15,0,40,0,0,2,60,0,6.9,0,35,0,14.1,0,6.9,0,43.8,0
3/4/2003 2:00,14.9,0,40,0,0,2,60,0,6.6,0,36,0,14.3,0,6.6,0,44.8,0
3/4/2003 2:15,14.8,0,40,0,0,2,60,0,6.6,0,36,0,10.9,0,6.4,0,44.8,0
3/4/2003 2:30,14.7,0,40,0,0,2,60,0,6.2,0,36,0,10.9,0,6.2,0,44.8,0
3/4/2003 2:45,14.6,0,40,0,0,2,59,0,6.2,0,35,0,11.2,0,6,0,44.8,0
3/4/2003 3:00,14.6,0,40,0,0,2,59,0,5.9,0,35,0,11.2,0,5.8,0,44.8,0
3/4/2003 3:15,14.4,0,39,0,0,2,59,0,5.7,0,35,0,11.4,0,5.6,0,44.5,0
3/4/2003 3:30,14.3,0,40,0,0,2,60,0,5.4,0,34,0,11.6,0,5.4,0,44.3,0
3/4/2003 3:45,14.3,0,40,0,0,2,60,0,5.4,0,33,0,11.7,0,5.2,0,44,0
3/4/2003 4:00,15.8,0,40,0,0,2,60,0,5,0,33,0,11.8,0,5,0,43.8,0
3/4/2003 4:15,17.2,0,39,0,0,2,60,0,4.8,0,32,0,11.9,0,4.9,0,43,0
3/4/2003 4:30,18.3,0,39,0,0,2,60,0,4.9,0,32,0,12.1,0,4.7,0,42.3,0
3/4/2003 4:45,19.3,0,37,0,0,2,60,0,4.8,0,32,0,12.2,0,4.6,0,41.5,0
3/4/2003 5:00,20.1,0,37,0,0,2,61,0,5.1,0,32,0,12.3,0,4.5,0,40.8,0
3/4/2003 5:15,20.9,0,36,0,0,2,61,0,4.6,0,31,0,12.5,0,4.5,0,40,0
3/4/2003 5:30,20.4,0,36,0,0,2,61,0,4.9,0,31,0,12.6,0,4.5,0,39.3,0
3/4/2003 5:45,19.9,0,35,0,0,2,61,0,5.1,0,31,0,12.7,0,4.5,0,38.5,0
3/4/2003 6:00,18.4,0,32,0,0,2,61,0,5.2,0,30,0,12.8,0,4.5,0,37.8,0
3/4/2003 6:15,17.7,0,32,0,0,2,61,0,4.3,0,30,0,13,0,4.3,0,37,0
3/4/2003 6:30,17.2,0,31,0,0,2,60,0,4.2,0,30,0,10.6,0,4.1,0,36.3,0
3/4/2003 6:45,16.7,0,30,0,0,2,59,0,3.9,0,30,0,10.6,0,4,0,35.5,0
3/4/2003 7:00,16.2,0,30,0,0,2,59,0,3.9,0,30,0,10.7,0,3.8,0,34.8,0
3/4/2003 7:15,15.9,0,30,0,0,2,58,0,3.9,0,30,0,9.4,0,3.9,0,34.3,0
3/4/2003 7:30,15.6,0,29,0,0,2,53,0,4.1,0,29,0,9.2,0,4,0,33.8,0
3/4/2003 7:45,15.7,0,29,0,0,2,53,0,4.3,0,29,0,9.3,0,4.1,0,33.3,0
3/4/2003 8:00,16.5,0,30,0,0,2,53,0,4.6,0,29,0,9.5,0,4.2,0,32.8,0
3/4/2003 8:15,17.4,0,28,0,0,2,52,0,4.6,0,29,0,9.6,0,4.4,0,30.8,0
3/4/2003 8:30,18,0,28,0,0,2,51,0,4.8,0,28,0,9.8,0,4.6,0,28.8,0
3/4/2003 8:45,18.2,0,28,0,0,2,40,0,5,0,28,0,10.1,0,4.9,0,26.8,0
3/4/2003 9:00,18.3,0,27,0,0,2,38,0,4.8,0,28,0,10.2,0,5.1,0,24.8,0
3/4/2003 9:15,17.9,0,26,0,0,2,36,0,4.9,0,28,0,10.4,0,5.2,0,24.8,0
3/4/2003 9:30,17.8,0,26,0,0,2,35,0,5.3,0,28,0,10.5,0,5.3,0,24.8,0
3/4/2003 9:45,17.6,0,27,0,0,2,35,0,5.5,0,28,0,9.7,0,5.4,0,24.8,0
3/4/2003 10:00,17.1,0,27,0,0,2,35,0,5.5,0,28,0,9.8,0,5.5,0,24.8,0
3/4/2003 10:15,17.1,0,28,0,0,2,35,0,5.8,0,28,0,9.4,0,5.6,0,23.8,0
3/4/2003 10:30,17,0,28,0,0,2,34,0,6.4,0,27,0,9.5,0,5.7,0,22.8,0
3/4/2003 10:45,16.9,0,29,0,0,2,33,0,6.2,0,28,0,9.2,0,5.8,0,21.8,0
3/4/2003 11:00,16.8,0,30,0,0,2,30,0,6.4,0,27,0,9.4,0,5.9,0,20.8,0
3/4/2003 11:15,16.8,0,30,0,0,2,30,0,6.8,0,27,0,9.2,0,6.1,0,20.3,0
3/4/2003 11:30,16.7,0,31,0,0,2,31,0,6.9,0,27,0,9.4,0,6.3,0,19.8,0
3/4/2003 11:45,16.4,0,30,0,0,2,31,0,7.6,0,27,0,9.2,0,6.6,0,19.3,0
3/4/2003 12:00,16.4,0,33,0,0,2,31,0,7.6,0,27,0,9.2,0,6.8,0,18.8,0
3/4/2003 12:15,16.3,0,33,0,0,2,31,0,7.9,0,26,0,9.5,0,7,0,19.3,0
3/4/2003 12:30,16.3,0,33,0,0,2,31,0,8,0,26,0,9.4,0,7.2,0,19.8,0
3/4/2003 12:45,16.2,0,35,0,0,2,31,0,8.4,0,26,0,9.5,0,7.4,0,20.3,0
3/4/2003 13:00,16.3,0,37,0,0,2,32,0,7.8,0,27,0,9.7,0,7.6,0,20.8,0
3/4/2003 13:15,16.4,0,36,0,0,2,33,0,7.9,0,26,0,9.8,0,7.6,0,19.8,0
3/4/2003 13:30,16.2,0,35,0,0,2,33,0,7.6,0,26,0,9.5,0,7.7,0,18.8,0
3/4/2003 13:45,16.1,0,36,0,0,2,33,0,8.8,0,26,0,9.8,0,7.7,0,17.8,0
3/4/2003 14:00,16.2,0,36,0,0,2,33,0,8.7,0,26,0,10,0,7.8,0,16.8,0
3/4/2003 14:15,16,0,35,0,0,2,33,0,7.9,0,26,0,10,0,7.6,0,18.5,0
3/4/2003 14:30,16,0,36,0,0,2,34,0,7.3,0,27,0,10.3,0,7.3,0,20.3,0
3/4/2003 14:45,15.9,0,33,0,0,2,35,0,7.5,0,27,0,10.4,0,7.1,0,22,0
3/4/2003 15:00,16,0,31,0,0,2,36,0,7.2,0,27,0,10.6,0,6.9,0,23.8,0
3/4/2003 15:15,16.1,0,32,0,0,2,36,0,7.1,0,27,0,9.5,0,6.7,0,24,0
3/4/2003 15:30,16.2,0,30,0,0,2,37,0,7.2,0,27,0,9.3,0,6.6,0,24.3,0
3/4/2003 15:45,16.4,0,30,0,0,2,37,0,7,0,27,0,9.5,0,6.4,0,24.5,0
3/4/2003 16:00,16.2,0,30,0,0,2,37,0,6.5,0,27,0,9.5,0,6.3,0,24.8,0
3/4/2003 16:15,15.9,0,30,0,0,2,37,0,6.2,0,28,0,9.8,0,6,0,25.8,0
3/4/2003 16:30,15.8,0,30,0,0,2,37,0,6.1,0,27,0,10,0,5.7,0,26.8,0